| time (UTC) | temp F | wind direction | speed MPH | gust MPH | rain 1hr in | rain 24hr in | rain mn in | humidity % | barometer mb |
| 20260903090142 | 70 | 256 | 2.0 | 5.0 | 0.01 | 0.43 | 0.18 | 99 | 1012.9 |
| 20260903085122 | 70 | 214 | 2.0 | 4.0 | 0.01 | 0.43 | 0.18 | 99 | 1013.1 |
| 20260903084123 | 70 | 240 | 1.0 | 4.0 | 0.01 | 0.43 | 0.18 | 99 | 1013.7 |
| 20260903083144 | 69 | 248 | 0.0 | 0.0 | 0.02 | 0.43 | 0.18 | 99 | 1014.0 |
| 20260903082121 | 69 | 315 | 0.0 | 0.0 | 0.02 | 0.43 | 0.18 | 99 | 1013.8 |
| 20260903081125 | 69 | 23 | 0.0 | 0.0 | 0.04 | 0.43 | 0.18 | 99 | 1013.6 |
| 20260903075122 | 69 | 23 | 0.0 | 0.0 | 0.05 | 0.42 | 0.17 | 99 | 1013.8 |
| 20260903074121 | 69 | 135 | 0.0 | 2.0 | 0.06 | 0.42 | 0.17 | 99 | 1014.1 |
| 20260903073121 | 68 | 242 | 1.0 | 2.0 | 0.05 | 0.41 | 0.16 | 99 | 1014.2 |
| 20260903072122 | 68 | 236 | 1.0 | 3.0 | 0.05 | 0.41 | 0.16 | 99 | 1014.4 |
| 20260903071123 | 68 | 227 | 1.0 | 2.0 | 0.03 | 0.39 | 0.14 | 99 | 1014.6 |
| 20260903070122 | 68 | 231 | 1.0 | 3.0 | 0.03 | 0.38 | 0.13 | 99 | 1014.6 |
| 20260903065127 | 68 | 248 | 0.0 | 0.0 | 0.02 | 0.37 | 0.12 | 99 | 1014.6 |
| 20260903064122 | 68 | 270 | 0.0 | 0.0 | 0.02 | 0.36 | 0.11 | 99 | 1014.5 |
| 20260903063122 | 68 | 338 | 0.0 | 0.0 | 0.02 | 0.36 | 0.11 | 99 | 1014.4 |
| 20260903062122 | 68 | 233 | 0.0 | 2.0 | 0.04 | 0.36 | 0.11 | 99 | 1014.6 |
| 20260903061123 | 68 | 269 | 0.0 | 2.0 | 0.09 | 0.36 | 0.11 | 99 | 1014.4 |
| 20260903060142 | 68 | 177 | 1.0 | 2.0 | 0.09 | 0.35 | 0.10 | 99 | 1014.4 |
| 20260903055121 | 68 | 210 | 2.0 | 3.0 | 0.09 | 0.35 | 0.10 | 99 | 1014.8 |
| 20260903054121 | 68 | 116 | 1.0 | 2.0 | 0.09 | 0.34 | 0.09 | 99 | 1015.2 |
| 20260903053121 | 68 | 305 | 1.0 | 4.0 | 0.09 | 0.34 | 0.09 | 99 | 1016.2 |
| 20260903052122 | 68 | 288 | 3.0 | 7.0 | 0.07 | 0.32 | 0.07 | 99 | 1016.8 |
| 20260903051121 | 68 | 303 | 3.0 | 5.0 | 0.02 | 0.27 | 0.02 | 99 | 1016.1 |
| 20260903050122 | 68 | 287 | 1.0 | 3.0 | 0.01 | 0.26 | 0.01 | 99 | 1016.1 |
| 20260903045121 | 68 | 35 | 1.0 | 3.0 | 0.01 | 0.26 | 0.01 | 99 | 1016.2 |
| 20260903044143 | 69 | 113 | 0.0 | 2.0 | 0.00 | 0.25 | 0.00 | 99 | 1016.5 |
| 20260903043122 | 69 | 293 | 0.0 | 0.0 | 0.00 | 0.25 | 0.00 | 99 | 1016.2 |
| 20260903042142 | 69 | 203 | 0.0 | 0.0 | 0.00 | 0.25 | 0.00 | 99 | 1016.2 |
| 20260903041125 | 69 | 338 | 0.0 | 0.0 | 0.00 | 0.25 | 0.00 | 99 | 1016.4 |
| 20260903040121 | 69 | 270 | 0.0 | 0.0 | 0.00 | 0.25 | 0.00 | 99 | 1016.4 |
| 20260903035127 | 69 | 315 | 0.0 | 0.0 | 0.00 | 0.25 | 0.25 | 99 | 1016.5 |
| 20260903034121 | 69 | 105 | 1.0 | 2.0 | 0.00 | 0.25 | 0.25 | 99 | 1016.4 |
| 20260903033121 | 68 | 97 | 1.0 | 3.0 | 0.00 | 0.25 | 0.25 | 99 | 1016.1 |
| 20260903032123 | 68 | 95 | 1.0 | 3.0 | 0.00 | 0.25 | 0.25 | 99 | 1016.2 |
| 20260903031123 | 68 | 101 | 2.0 | 3.0 | 0.00 | 0.25 | 0.25 | 99 | 1016.2 |
| 20260903030121 | 68 | 106 | 3.0 | 4.0 | 0.00 | 0.25 | 0.25 | 99 | 1016.2 |
| 20260903025124 | 68 | 98 | 1.0 | 4.0 | 0.00 | 0.25 | 0.25 | 99 | 1016.6 |
| 20260903024122 | 68 | 90 | 0.0 | 0.0 | 0.00 | 0.25 | 0.25 | 99 | 1016.8 |
| 20260903023143 | 68 | 225 | 0.0 | 0.0 | 0.00 | 0.25 | 0.25 | 99 | 1016.8 |
| 20260903022123 | 68 | 69 | 1.0 | 2.0 | 0.00 | 0.25 | 0.25 | 99 | 1016.5 |
| 20260903021144 | 68 | 81 | 0.0 | 2.0 | 0.00 | 0.25 | 0.25 | 99 | 1016.4 |
| 20260903020121 | 68 | 113 | 0.0 | 0.0 | 0.00 | 0.25 | 0.25 | 99 | 1016.4 |
| 20260903015123 | 68 | 338 | 0.0 | 0.0 | 0.00 | 0.25 | 0.25 | 99 | 1016.9 |
| 20260903014121 | 68 | 164 | 1.0 | 4.0 | 0.00 | 0.25 | 0.25 | 99 | 1016.8 |
| 20260903013145 | 68 | 123 | 3.0 | 6.0 | 0.00 | 0.25 | 0.25 | 99 | 1016.9 |
| 20260903012125 | 68 | 104 | 2.0 | 3.0 | 0.00 | 0.25 | 0.25 | 99 | 1017.2 |
| 20260903011121 | 68 | 92 | 2.0 | 5.0 | 0.00 | 0.25 | 0.25 | 99 | 1017.4 |
| 20260903010122 | 68 | 106 | 2.0 | 4.0 | 0.00 | 0.25 | 0.25 | 99 | 1017.4 |
| 20260903005142 | 68 | 107 | 2.0 | 3.0 | 0.00 | 0.25 | 0.25 | 99 | 1017.8 |
| 20260903004142 | 68 | 70 | 2.0 | 4.0 | 0.00 | 0.25 | 0.25 | 99 | 1017.8 |
| 20260903003121 | 68 | 78 | 1.0 | 2.0 | 0.00 | 0.25 | 0.25 | 99 | 1017.5 |
| 20260903002142 | 68 | 118 | 1.0 | 3.0 | 0.00 | 0.25 | 0.25 | 99 | 1017.1 |
| 20260903001124 | 68 | 79 | 1.0 | 3.0 | 0.00 | 0.25 | 0.25 | 99 | 1016.8 |
| 20260903000121 | 68 | 109 | 2.0 | 4.0 | 0.00 | 0.25 | 0.25 | 99 | 1016.8 |
| 20260902235121 | 68 | 101 | 3.0 | 5.0 | 0.00 | 0.25 | 0.25 | 99 | 1016.8 |
| 20260902234121 | 68 | 110 | 2.0 | 5.0 | 0.00 | 0.25 | 0.25 | 99 | 1016.8 |
| 20260902233124 | 68 | 98 | 3.0 | 6.0 | 0.00 | 0.25 | 0.25 | 99 | 1016.6 |
| 20260902232122 | 68 | 113 | 3.0 | 5.0 | 0.00 | 0.25 | 0.25 | 99 | 1016.7 |
| 20260902231122 | 68 | 99 | 3.0 | 6.0 | 0.00 | 0.25 | 0.25 | 99 | 1017.0 |
| 20260902230123 | 69 | 103 | 3.0 | 5.0 | 0.00 | 0.25 | 0.25 | 99 | 1017.0 |
| 20260902225122 | 69 | 113 | 2.0 | 4.0 | 0.00 | 0.25 | 0.25 | 99 | 1017.2 |
| 20260902224123 | 69 | 93 | 3.0 | 6.0 | 0.00 | 0.25 | 0.25 | 99 | 1017.0 |
| 20260902223123 | 69 | 103 | 3.0 | 6.0 | 0.00 | 0.25 | 0.25 | 99 | 1017.8 |
| 20260902222123 | 69 | 91 | 3.0 | 4.0 | 0.00 | 0.25 | 0.25 | 99 | 1017.9 |
| 20260902221122 | 70 | 98 | 3.0 | 5.0 | 0.00 | 0.25 | 0.25 | 99 | 1018.0 |
| 20260902220124 | 70 | 110 | 2.0 | 4.0 | 0.00 | 0.25 | 0.25 | 99 | 1018.0 |
| 20260902215120 | 70 | 90 | 1.0 | 4.0 | 0.00 | 0.25 | 0.25 | 99 | 1018.0 |
| 20260902214143 | 70 | 97 | 2.0 | 4.0 | 0.00 | 0.25 | 0.25 | 99 | 1017.9 |
| 20260902213121 | 70 | 108 | 2.0 | 4.0 | 0.00 | 0.25 | 0.25 | 99 | 1017.8 |
| 20260902212120 | 70 | 125 | 3.0 | 5.0 | 0.00 | 0.25 | 0.25 | 99 | 1017.7 |
| 20260902211120 | 70 | 127 | 2.0 | 3.0 | 0.00 | 0.25 | 0.25 | 99 | 1017.5 |
| 20260902210120 | 70 | 127 | 3.0 | 5.0 | 0.00 | 0.25 | 0.25 | 99 | 1017.5 |
| 20260902205146 | 70 | 133 | 3.0 | 5.0 | 0.00 | 0.25 | 0.25 | 99 | 1017.4 |
| 20260902204121 | 69 | 112 | 3.0 | 4.0 | 0.18 | 0.25 | 0.25 | 99 | 1017.7 |
| 20260902203120 | 69 | 125 | 3.0 | 5.0 | 0.23 | 0.25 | 0.25 | 99 | 1017.9 |
| 20260902202120 | 69 | 135 | 3.0 | 5.0 | 0.24 | 0.25 | 0.25 | 99 | 1018.1 |
| 20260902201123 | 69 | 124 | 3.0 | 5.0 | 0.24 | 0.25 | 0.25 | 99 | 1017.9 |
| 20260902200122 | 69 | 125 | 2.0 | 3.0 | 0.24 | 0.25 | 0.25 | 99 | 1017.9 |
| 20260902195122 | 70 | 99 | 1.0 | 3.0 | 0.24 | 0.25 | 0.25 | 99 | 1018.2 |
| 20260902194121 | 71 | 302 | 0.0 | 2.0 | 0.06 | 0.07 | 0.07 | 98 | 1018.6 |
| 20260902193121 | 71 | 75 | 2.0 | 3.0 | 0.01 | 0.02 | 0.02 | 93 | 1018.2 |
| 20260902192144 | 73 | 94 | 2.0 | 3.0 | 0.00 | 0.01 | 0.01 | 90 | 1018.0 |
| 20260902191123 | 73 | 145 | 2.0 | 4.0 | 0.00 | 0.01 | 0.01 | 87 | 1017.9 |
| 20260902190121 | 74 | 114 | 3.0 | 7.0 | 0.00 | 0.01 | 0.01 | 84 | 1017.9 |
| 20260902185142 | 74 | 180 | 3.0 | 6.0 | 0.00 | 0.01 | 0.01 | 84 | 1018.0 |
| 20260902184121 | 74 | 113 | 4.0 | 9.0 | 0.00 | 0.01 | 0.01 | 84 | 1017.9 |
| 20260902183146 | 75 | 112 | 3.0 | 5.0 | 0.00 | 0.01 | 0.01 | 82 | 1017.9 |
| 20260902182127 | 76 | 154 | 2.0 | 5.0 | 0.00 | 0.01 | 0.01 | 81 | 1018.0 |
| 20260902181142 | 75 | 134 | 3.0 | 5.0 | 0.00 | 0.01 | 0.01 | 81 | 1018.2 |
| 20260902180121 | 75 | 96 | 4.0 | 6.0 | 0.00 | 0.01 | 0.01 | 80 | 1018.2 |
| 20260902175121 | 75 | 112 | 3.0 | 6.0 | 0.00 | 0.01 | 0.01 | 80 | 1018.2 |
| 20260902174121 | 74 | 105 | 3.0 | 5.0 | 0.00 | 0.01 | 0.01 | 82 | 1018.2 |
| 20260902173145 | 75 | 129 | 2.0 | 4.0 | 0.00 | 0.02 | 0.01 | 81 | 1018.5 |
| 20260902172122 | 74 | 119 | 2.0 | 4.0 | 0.00 | 0.02 | 0.01 | 82 | 1018.5 |
| 20260902171147 | 74 | 133 | 1.0 | 3.0 | 0.00 | 0.02 | 0.01 | 82 | 1018.6 |
| 20260902170123 | 74 | 128 | 2.0 | 4.0 | 0.00 | 0.02 | 0.01 | 82 | 1018.6 |
| 20260902165142 | 74 | 119 | 1.0 | 3.0 | 0.00 | 0.02 | 0.01 | 81 | 1018.6 |
| 20260902164123 | 75 | 186 | 2.0 | 4.0 | 0.00 | 0.02 | 0.01 | 80 | 1018.6 |
| 20260902163144 | 75 | 159 | 1.0 | 4.0 | 0.00 | 0.02 | 0.01 | 81 | 1018.6 |
| 20260902162121 | 74 | 130 | 1.0 | 3.0 | 0.00 | 0.02 | 0.01 | 82 | 1018.6 |
| 20260902161122 | 73 | 128 | 3.0 | 5.0 | 0.00 | 0.02 | 0.01 | 82 | 1018.6 |
| 20260902160123 | 73 | 124 | 2.0 | 3.0 | 0.00 | 0.02 | 0.01 | 83 | 1018.6 |
| 20260902155125 | 73 | 102 | 3.0 | 5.0 | 0.00 | 0.03 | 0.01 | 82 | 1018.7 |
| 20260902154122 | 73 | 91 | 3.0 | 4.0 | 0.00 | 0.05 | 0.01 | 83 | 1018.8 |
| 20260902153122 | 73 | 99 | 4.0 | 6.0 | 0.00 | 0.06 | 0.01 | 83 | 1018.8 |
| 20260902152125 | 72 | 98 | 3.0 | 5.0 | 0.00 | 0.07 | 0.01 | 84 | 1018.9 |
| 20260902151122 | 72 | 102 | 3.0 | 5.0 | 0.00 | 0.08 | 0.01 | 84 | 1018.9 |
| 20260902150122 | 71 | 99 | 2.0 | 4.0 | 0.00 | 0.08 | 0.01 | 85 | 1018.9 |
| 20260902145122 | 71 | 109 | 2.0 | 4.0 | 0.00 | 0.08 | 0.01 | 84 | 1019.0 |
| 20260902144126 | 71 | 101 | 2.0 | 4.0 | 0.00 | 0.10 | 0.01 | 85 | 1019.0 |
| 20260902142123 | 70 | 75 | 3.0 | 4.0 | 0.00 | 0.10 | 0.01 | 87 | 1018.9 |
| 20260902141120 | 70 | 99 | 2.0 | 5.0 | 0.00 | 0.10 | 0.01 | 88 | 1019.0 |
| 20260902140120 | 69 | 76 | 3.0 | 5.0 | 0.00 | 0.10 | 0.01 | 88 | 1019.0 |
| 20260902135143 | 69 | 99 | 3.0 | 6.0 | 0.00 | 0.10 | 0.01 | 88 | 1018.6 |
| 20260902134127 | 69 | 96 | 3.0 | 5.0 | 0.00 | 0.10 | 0.01 | 88 | 1018.5 |
| 20260902134120 | 69 | 97 | 3.0 | 5.0 | 0.00 | 0.10 | 0.01 | 88 | 1018.5 |
| 20260902133120 | 69 | 89 | 3.0 | 5.0 | 0.00 | 0.10 | 0.01 | 87 | 1018.2 |
| 20260902132120 | 69 | 111 | 4.0 | 9.0 | 0.00 | 0.10 | 0.01 | 88 | 1018.5 |
| 20260902131121 | 69 | 98 | 4.0 | 6.0 | 0.00 | 0.10 | 0.01 | 90 | 1018.4 |
| 20260902130120 | 68 | 99 | 3.0 | 5.0 | 0.00 | 0.10 | 0.01 | 91 | 1018.4 |
| 20260902125120 | 68 | 122 | 3.0 | 6.0 | 0.00 | 0.10 | 0.01 | 95 | 1018.2 |
| 20260902124121 | 67 | 87 | 3.0 | 5.0 | 0.00 | 0.10 | 0.01 | 97 | 1018.2 |
| 20260902123127 | 67 | 77 | 3.0 | 4.0 | 0.00 | 0.10 | 0.01 | 99 | 1018.2 |
| 20260902121145 | 66 | 79 | 3.0 | 5.0 | 0.00 | 0.10 | 0.01 | 99 | 1018.2 |
| 20260902120146 | 66 | 87 | 2.0 | 5.0 | 0.00 | 0.10 | 0.01 | 99 | 1018.2 |
| 20260902115120 | 65 | 68 | 3.0 | 6.0 | 0.00 | 0.10 | 0.01 | 99 | 1018.2 |
| 20260902113121 | 65 | 112 | 3.0 | 4.0 | 0.00 | 0.10 | 0.01 | 99 | 1018.2 |
| 20260902112124 | 65 | 96 | 3.0 | 7.0 | 0.00 | 0.10 | 0.01 | 99 | 1018.0 |
| 20260902111121 | 65 | 48 | 2.0 | 4.0 | 0.00 | 0.10 | 0.01 | 99 | 1018.2 |
| 20260902110151 | 65 | 88 | 3.0 | 6.0 | 0.00 | 0.10 | 0.01 | 99 | 1018.2 |
| 20260902105121 | 65 | 111 | 3.0 | 6.0 | 0.01 | 0.10 | 0.01 | 99 | 1018.1 |
| 20260902104121 | 65 | 91 | 3.0 | 6.0 | 0.01 | 0.10 | 0.01 | 99 | 1017.8 |
| 20260902103120 | 65 | 91 | 3.0 | 5.0 | 0.01 | 0.10 | 0.01 | 99 | 1017.7 |
| 20260902102143 | 66 | 103 | 3.0 | 5.0 | 0.01 | 0.10 | 0.01 | 99 | 1017.6 |
| 20260902101121 | 66 | 104 | 3.0 | 6.0 | 0.01 | 0.10 | 0.01 | 99 | 1017.4 |
| 20260902100122 | 66 | 117 | 3.0 | 6.0 | 0.01 | 0.10 | 0.01 | 99 | 1017.4 |
| 20260902095121 | 66 | 55 | 3.0 | 5.0 | 0.00 | 0.09 | 0.00 | 99 | 1017.2 |
| 20260902094142 | 66 | 64 | 3.0 | 6.0 | 0.00 | 0.09 | 0.00 | 99 | 1017.2 |
| 20260902093121 | 66 | 50 | 2.0 | 5.0 | 0.00 | 0.09 | 0.00 | 99 | 1017.2 |
| 20260902092125 | 67 | 87 | 3.0 | 5.0 | 0.00 | 0.09 | 0.00 | 99 | 1017.2 |
| 20260902091121 | 67 | 26 | 3.0 | 5.0 | 0.00 | 0.09 | 0.00 | 99 | 1017.2 |